DateTimeUTC,F1_A11,F1_S11,BsB_S11,BsG_S11,BsR_S11,BbsB_S11,BbsG_S11,BbsR_S11,BaB_A11,BaG_A11,BaR_A11,Tu_S11,T_S11,Uu_S11,U_S11,P_S11,T1_A11
2021-11-05T00:00:00Z,00000200,21000000,,,,,,,0000.10,0000.18,-000.02,18.8,25.8,,00.0,0648.8,31.1
2021-11-05T00:01:00Z,00000200,21000000,,,,,,,0000.34,0000.31,0000.34,18.7,25.8,,00.0,0648.8,31.1
2021-11-05T00:02:00Z,00000200,21000000,,,,,,,0000.32,0000.24,0000.13,18.7,25.8,,00.0,0648.8,31.1
2021-11-05T00:03:00Z,00000200,61000000,,,,,,,0000.44,0000.39,0000.29,18.7,25.8,,00.0,0648.8,31.1
2021-11-05T00:04:00Z,00000200,41000000,-000.21,0000.13,-000.22,-000.14,0000.19,-000.26,0000.10,0000.32,-000.02,18.8,25.5,,00.0,0649.6,31.1
2021-11-05T00:05:00Z,00000200,01000000,-000.16,0000.02,-000.26,0000.47,0000.09,-000.21,0000.08,0000.19,0000.24,18.8,25.5,,00.0,0649.7,31.1
2021-11-05T00:06:00Z,00000200,01000000,-000.38,0000.41,-000.13,-000.54,0000.09,-000.16,0000.47,0000.08,0000.46,18.9,25.5,,00.0,0649.7,31.1
2021-11-05T00:07:00Z,00000200,01000000,-000.61,0000.22,0000.28,-000.17,-000.25,0000.13,0000.12,0000.03,0000.00,19.0,25.5,,00.0,0649.7,31.1
2021-11-05T00:08:00Z,00000200,01000000,-000.33,0000.15,-000.20,0000.64,0000.34,0000.36,0000.20,0000.41,0000.12,19.1,25.6,,00.0,0649.7,31.2
2021-11-05T00:09:00Z,00000200,01000000,0000.53,0000.23,0000.20,-000.24,0000.12,0000.03,-000.23,-000.15,-000.04,19.2,25.6,,00.0,0649.7,31.2
2021-11-05T00:10:00Z,00000200,01000000,0000.07,0000.22,-000.07,0000.32,0000.16,-000.08,-000.14,0000.35,-000.03,19.2,25.6,,00.0,0649.7,31.2
2021-11-05T00:11:00Z,00000200,01000000,-000.08,0000.10,-000.22,-000.27,0000.10,0000.02,0000.41,0000.20,-000.04,19.3,25.7,,00.0,0649.8,31.2
2021-11-05T00:12:00Z,00000200,01000000,-000.15,0000.42,-000.00,-000.05,0000.06,0000.22,-000.19,-000.33,0000.04,19.4,25.7,,00.0,0649.8,31.2
2021-11-05T00:13:00Z,00000200,01000000,-000.33,0000.12,0000.13,-000.84,-000.02,0000.02,0000.07,0000.04,0000.16,19.3,25.7,,00.0,0649.7,31.2
2021-11-05T00:14:00Z,00000200,01000000,0000.00,0000.32,-000.19,-000.61,0000.10,-000.20,-000.07,-000.21,-000.38,19.3,25.7,,00.0,0649.7,31.1
2021-11-05T00:15:00Z,00000200,01000000,-000.33,-000.07,-000.15,-000.16,0000.24,0000.06,-000.18,0000.05,0000.32,19.2,25.6,,00.0,0649.7,31.1
2021-11-05T00:16:00Z,00000200,01000000,0000.12,0000.35,-000.13,0000.04,0000.24,-000.04,0000.27,-000.07,0000.12,19.1,25.6,,00.0,0649.7,31.1
2021-11-05T00:17:00Z,00000200,01000000,-000.26,0000.42,0000.36,0000.55,0000.09,0000.43,-000.09,0000.29,-000.01,19.1,25.5,,00.0,0649.7,31.1
2021-11-05T00:18:00Z,00000200,01000000,0000.19,0000.07,0000.18,0000.24,0000.15,0000.18,-000.07,-000.35,-000.13,19.0,25.5,,00.0,0649.7,31.1
2021-11-05T00:19:00Z,00000200,01000000,-000.67,0000.33,-000.23,0000.51,0000.18,0000.03,0000.26,0000.13,0000.15,19.1,25.5,,00.0,0649.7,31.1
2021-11-05T00:20:00Z,00000200,01000000,0000.09,-000.05,-000.15,0000.12,-000.18,0000.05,-000.09,-000.14,0000.01,19.1,25.6,,00.0,0649.7,31.1
2021-11-05T00:21:00Z,00000200,01000000,-000.37,0000.35,0000.06,-000.12,0000.11,-000.12,0000.23,0000.36,0000.12,19.2,25.6,,00.0,0649.7,31.1
2021-11-05T00:22:00Z,00000200,01000000,-000.21,0000.14,-000.00,0000.02,0000.17,0000.34,0000.20,0000.09,0000.06,19.2,25.6,,00.0,0649.8,31.1
2021-11-05T00:23:00Z,00000200,01000000,0000.03,0000.11,0000.28,-000.37,0000.16,0000.31,-000.31,0000.13,-000.24,19.3,25.6,,00.0,0649.8,31.1
2021-11-05T00:24:00Z,00000200,01000000,-000.15,0000.40,0000.45,0000.46,0000.02,0000.21,-000.18,-000.48,-000.25,19.3,25.7,,00.0,0649.9,31.2
2021-11-05T00:25:00Z,00000200,01000000,-000.43,0000.31,-000.03,0000.70,0000.28,-000.39,0000.17,-000.04,0000.07,19.2,25.7,,00.0,0649.9,31.1
2021-11-05T00:26:00Z,00000200,01000000,0000.04,0000.01,-000.16,-000.00,0000.24,0000.12,-000.40,-000.34,0000.02,19.2,25.6,,00.0,0649.9,31.1
2021-11-05T00:27:00Z,00000200,01000000,0000.10,0000.37,-000.05,0000.14,0000.28,-000.22,0000.04,-000.14,-000.17,19.1,25.6,,00.0,0649.9,31.1
2021-11-05T00:28:00Z,00000200,01000000,-000.46,0000.12,-000.03,0000.39,0000.08,0000.19,-000.42,0000.08,-000.10,19.0,25.5,,00.0,0649.9,31.1
2021-11-05T00:29:00Z,00000200,01000000,0000.63,-000.23,0000.17,-000.21,0000.33,0000.11,-000.00,-000.00,-000.25,19.0,25.5,,00.0,0649.8,31.1
2021-11-05T00:30:00Z,00000200,01000000,-000.43,0000.18,-000.06,0000.06,0000.31,0000.08,-000.06,-000.22,-000.21,18.9,25.5,,00.0,0649.8,31.1
2021-11-05T00:31:00Z,00000200,01000000,0000.13,0000.06,0000.19,-000.08,0000.34,-000.18,0000.23,0000.10,0000.37,18.8,25.4,,00.0,0649.8,31.1
2021-11-05T00:32:00Z,00000200,01000000,-000.46,0000.32,0000.17,-000.25,0000.23,0000.11,-000.15,-000.33,-000.29,18.7,25.4,,00.0,0649.9,31.1
2021-11-05T00:33:00Z,00000200,01000000,-000.44,0000.01,-000.05,-000.39,0000.28,-000.12,-000.22,-000.14,-000.07,18.7,25.4,,00.0,0649.9,31.1
2021-11-05T00:34:00Z,00000200,01000000,0000.36,0000.11,0000.15,-000.09,0000.16,0000.08,0000.04,0000.30,0000.05,18.8,25.4,,00.0,0649.9,31.1
2021-11-05T00:35:00Z,00000200,01000000,-000.05,0000.33,0000.04,-000.09,0000.17,-000.17,-000.10,0000.02,0000.02,18.8,25.4,,00.0,0649.9,31.1
2021-11-05T00:36:00Z,00000200,01000000,-000.15,0000.53,-000.24,0000.24,0000.20,-000.24,0000.44,-000.02,-000.24,18.9,25.4,,00.0,0649.9,31.1
2021-11-05T00:37:00Z,00000200,01000000,-000.42,0000.22,-000.06,0000.46,0000.08,0000.06,-000.24,0000.33,0000.24,19.0,25.5,,00.0,0649.9,31.1
2021-11-05T00:38:00Z,00000200,01000000,-000.14,0000.32,-000.23,-000.28,0000.13,0000.04,-000.19,-000.13,-000.18,19.1,25.5,,00.0,0649.9,31.1
2021-11-05T00:39:00Z,00000200,01000000,0000.05,0000.24,0000.02,0000.30,0000.36,0000.07,0000.20,-000.23,-000.02,19.1,25.5,,00.0,0649.9,31.1
2021-11-05T00:40:00Z,00000200,01000000,0000.33,0000.40,0000.23,-000.14,0000.01,0000.18,-000.07,0000.21,0000.16,19.2,25.6,,00.0,0649.9,31.2
2021-11-05T00:41:00Z,00000200,01000000,0000.11,0000.35,-000.03,-000.15,0000.09,-000.11,-000.06,-000.32,0000.11,19.2,25.6,,00.0,0649.9,31.2
2021-11-05T00:42:00Z,00000200,01000000,-000.76,0000.41,0000.12,0000.11,0000.42,0000.28,0000.06,0000.02,-000.14,19.2,25.6,,00.0,0649.9,31.2
2021-11-05T00:43:00Z,00000200,01000000,-000.58,-000.02,-000.08,0000.02,-000.01,-000.23,-000.42,0000.07,0000.08,19.1,25.5,,00.0,0649.9,31.1
2021-11-05T00:44:00Z,00000200,01000000,-000.33,0000.37,-000.01,-000.46,0000.15,-000.18,-000.05,-000.24,-000.16,19.0,25.5,,00.0,0649.9,31.1
2021-11-05T00:45:00Z,00000200,01000000,0000.35,0000.38,0000.06,0000.08,0000.26,-000.10,0000.22,-000.08,-000.20,19.0,25.5,,00.0,0649.9,31.1
2021-11-05T00:46:00Z,00000200,01000000,0000.09,0000.27,0000.01,-000.18,0000.21,0000.01,0000.16,0000.19,0000.20,18.9,25.5,,00.0,0649.9,31.1
2021-11-05T00:47:00Z,00000200,01000000,0000.31,0000.37,-000.12,-000.18,0000.17,0000.23,-000.18,0000.54,0000.17,18.9,25.4,,00.0,0649.9,31.1
2021-11-05T00:48:00Z,00000200,01000000,0000.28,0000.23,0000.18,-000.53,-000.12,0000.06,0000.88,0000.01,0000.63,18.8,25.4,,00.0,0649.9,31.1
2021-11-05T00:49:00Z,00000200,01000000,-000.10,0000.37,0000.26,-000.40,0000.19,0000.02,0000.10,0000.32,0000.18,18.9,25.4,,00.0,0649.9,31.1
2021-11-05T00:50:00Z,00000200,01000000,0000.18,0000.40,0000.04,-000.15,0000.15,0000.04,0000.56,0000.60,0000.10,18.9,25.4,,00.0,0649.9,31.1
2021-11-05T00:51:00Z,00000200,01000000,-000.09,0000.09,0000.34,-000.38,-000.02,-000.05,-000.10,0000.33,0000.27,19.0,25.5,,00.0,0649.9,31.1
2021-11-05T00:52:00Z,00000200,01000000,0000.12,0000.01,0000.46,-000.28,0000.30,0000.14,0000.57,-000.15,0000.20,19.1,25.5,,00.0,0649.9,31.1
2021-11-05T00:53:00Z,00000200,01000000,0000.19,0000.18,-000.20,-000.07,-000.22,0000.10,0000.09,0000.44,0000.08,19.2,25.5,,00.0,0649.9,31.2
2021-11-05T00:54:00Z,00000200,01000000,0000.60,0000.26,0000.07,-000.17,0000.04,0000.20,-000.41,-000.26,-000.21,19.2,25.6,,00.0,0649.9,31.2
2021-11-05T00:55:00Z,00000200,01000000,0000.58,0000.01,-000.16,0000.07,0000.51,-000.23,-000.01,-000.07,0000.17,19.3,25.6,,00.0,0649.9,31.2
2021-11-05T00:56:00Z,00000200,01000000,-000.70,0000.29,0000.13,-000.16,0000.04,-000.16,0000.17,-000.01,0000.02,19.3,25.6,,00.0,0649.9,31.2
2021-11-05T00:57:00Z,00000200,41000000,,,,,,,0000.14,0000.09,0000.13,19.3,25.6,,00.0,0649.9,31.1
2021-11-05T00:58:00Z,00000200,61000000,,,,,,,-000.34,-000.34,-000.53,18.9,25.7,,00.0,0649.0,31.1
2021-11-05T00:59:00Z,00000200,21000000,,,,,,,-000.13,-000.29,-000.24,18.9,25.8,,00.0,0649.0,31.1
